DELTA 1 DEB, 40772

Orbit data source: Space-Track

DELTA 1 DEB, 40772 is space debris in SSO originally from a launch on Thu, 29 Jul 1976 UTC launched from the Air Force Western Test Range (AFWTR). Debris objects in space refer to the collection of defunct objects orbiting the Earth. Examples of debris include non-operational satellites, rocket bodies, and fragments generated from explosions, collisions, or faulty payload assembly.

Loading next visibility...
Identifier
40772, 1976-077GR
Orbit
SSO
Country
Flag of USUS
Related business
Manufacturer
Unknown
Mission
Spacecraft
Bus & Motor
Unknown
Mass
Unknown
Launch date (UTC)
1976-07-29 (50 years ago)
Launch vehicle
Unknown
Launch site
Air Force Western Test Range (AFWTR)
Object type
Payload
Rocket body
Debris
Shape & HBR
Unknown shape, 0.1 m
Radar Cross Section
Small (<0.1 m²)

Expand to show TLE details & history
Last TLE update: 3 months ago

TLE from 3 months ago
0 DELTA 1 DEB
1 40772U 76077GR  26076.10674494  .00000217  00000-0  28629-2 0  9992
2 40772 102.2614  28.4099 0187007 214.4287 144.4520 12.04975778500938
Epoch: 2026-03-17T02:33Z
TLE epoch observation values (Epoch: 2026-03-17T02:33:42.762Z)
Latitude
-0.00009°
Longitude
175.29212°
Altitude
1,784.38 km
Speed
6.936 km/s
True Right ascension
01h 53m 38s
True Declination
0° 00' 00"
Sunlit
Object was in daylight at epoch
Visualization orbit readout
Latitude
Unknown
Longitude
Unknown
Altitude
Unknown
Speed
Unknown
Apparent Right ascension
Unknown
Apparent Declination
Unknown
Sunlit
N/A
Visualization observer readout
Local Sidereal Time
08:57:36
Azimuth
Unknown
Elevation
Unknown
Doppler factor
Unknown
Orbital elements
Apogee altitude
1,806.544 km
Perigee altitude
1,506.045 km
Semi-major axis
8,034.431 km
Eccentricity
0.0187
Inclination
102.2614°
RAAN
28.4099°
Arg. of periapsis
214.4287°
True anomaly
145.67451°
Mean anomaly
144.452°
Eccentric anomaly
145.06557°
Mean motion
3.01377 °/min
Orbital period
119.45 mins
BSTAR
0.0028629
Loading maneuver chart data...
Computing Atmospheric mass density...
Loading historical data...
Loading historical data...
Loading historical data...
Loading historical data...
Loading historical data...
Loading historical data...
Loading historical data...

Documentation

Showing up to 5 results
|